Time,TemperatureF,DewpointF,PressureIn,WindDirection,WindDirectionDegrees,WindSpeedMPH,WindSpeedGustMPH,Humidity,HourlyPrecipIn,Conditions,Clouds,dailyrainin,SoftwareType,DateUTC
2013-06-22 10:22:00,81.0,76.0,-100.00,East,89,10.0,-999.0,83,0.00,,,-99.99,,2013-06-22 15:22:00,
2013-06-22 10:34:00,81.0,76.0,-100.00,East,89,10.0,-999.0,83,0.00,,,-99.99,,2013-06-22 15:34:00,
2013-06-22 10:43:00,81.0,76.0,-100.00,East,89,10.0,-999.0,83,0.00,,,-99.99,,2013-06-22 15:43:00,
2013-06-22 11:22:00,82.0,74.0,-100.00,East,94,9.0,-999.0,75,0.00,,,-99.99,,2013-06-22 16:22:00,
2013-06-22 11:34:00,82.0,74.0,-100.00,East,94,9.0,-999.0,75,0.00,,,-99.99,,2013-06-22 16:34:00,
2013-06-22 11:43:00,82.0,74.0,-100.00,East,94,9.0,-999.0,75,0.00,,,-99.99,,2013-06-22 16:43:00,
2013-06-22 12:22:00,83.0,74.0,-100.00,ESE,110,10.0,-999.0,73,0.00,,,-99.99,,2013-06-22 17:22:00,
2013-06-22 12:34:00,83.0,74.0,-100.00,ESE,110,10.0,-999.0,73,0.00,,,-99.99,,2013-06-22 17:34:00,
2013-06-22 12:43:00,83.0,74.0,-100.00,ESE,110,10.0,-999.0,73,0.00,,,-99.99,,2013-06-22 17:43:00,
2013-06-22 13:23:00,83.0,75.0,-100.00,SE,124,11.0,-999.0,76,0.00,,,-99.99,,2013-06-22 18:23:00,
2013-06-22 13:34:00,83.0,75.0,-100.00,SE,124,11.0,-999.0,76,0.00,,,-99.99,,2013-06-22 18:34:00,
2013-06-22 13:43:00,83.0,75.0,-100.00,SE,124,11.0,-999.0,76,0.00,,,-99.99,,2013-06-22 18:43:00,
2013-06-22 14:22:00,83.0,75.0,-100.00,SE,129,12.0,-999.0,76,0.00,,,-99.99,,2013-06-22 19:22:00,
2013-06-22 14:33:00,83.0,75.0,-100.00,SE,129,12.0,-999.0,76,0.00,,,-99.99,,2013-06-22 19:33:00,
2013-06-22 14:43:00,83.0,75.0,-100.00,SE,129,12.0,-999.0,76,0.00,,,-99.99,,2013-06-22 19:43:00,
2013-06-22 15:22:00,83.0,77.0,-100.00,SE,142,15.0,-999.0,83,0.00,,,-99.99,,2013-06-22 20:22:00,
2013-06-22 15:33:00,83.0,77.0,-100.00,SE,142,15.0,-999.0,83,0.00,,,-99.99,,2013-06-22 20:33:00,
2013-06-22 15:43:00,83.0,77.0,-100.00,SE,142,15.0,-999.0,83,0.00,,,-99.99,,2013-06-22 20:43:00,
2013-06-22 16:22:00,83.0,77.0,-100.00,SE,140,15.0,-999.0,82,0.00,,,-99.99,,2013-06-22 21:22:00,
2013-06-22 16:34:00,83.0,77.0,-100.00,SE,140,15.0,-999.0,82,0.00,,,-99.99,,2013-06-22 21:34:00,
2013-06-22 16:43:00,83.0,77.0,-100.00,SE,140,15.0,-999.0,82,0.00,,,-99.99,,2013-06-22 21:43:00,
2013-06-22 17:23:00,83.0,77.0,-100.00,SSE,148,12.0,-999.0,81,0.00,,,-99.99,,2013-06-22 22:23:00,
2013-06-22 17:33:00,83.0,77.0,-100.00,SSE,148,12.0,-999.0,81,0.00,,,-99.99,,2013-06-22 22:33:00,
2013-06-22 17:43:00,83.0,77.0,-100.00,SSE,148,12.0,-999.0,81,0.00,,,-99.99,,2013-06-22 22:43:00,
2013-06-22 18:22:00,83.0,76.0,-100.00,SE,146,10.0,-999.0,81,0.00,,,-99.99,,2013-06-22 23:22:00,
2013-06-22 18:34:00,83.0,76.0,-100.00,SE,146,10.0,-999.0,81,0.00,,,-99.99,,2013-06-22 23:34:00,
2013-06-22 18:43:00,83.0,76.0,-100.00,SE,146,10.0,-999.0,81,0.00,,,-99.99,,2013-06-22 23:43:00,
2013-06-22 19:22:00,83.0,75.0,-100.00,SE,139,9.0,-999.0,77,0.00,,,-99.99,,2013-06-23 00:22:00,
2013-06-22 19:33:00,83.0,75.0,-100.00,SE,139,9.0,-999.0,77,0.00,,,-99.99,,2013-06-23 00:33:00,
2013-06-22 19:42:00,83.0,75.0,-100.00,SE,139,9.0,-999.0,77,0.00,,,-99.99,,2013-06-23 00:42:00,
2013-06-22 20:22:00,83.0,76.0,-100.00,SSE,149,11.0,-999.0,80,0.00,,,-99.99,,2013-06-23 01:22:00,
2013-06-22 20:32:00,83.0,76.0,-100.00,SSE,149,11.0,-999.0,80,0.00,,,-99.99,,2013-06-23 01:32:00,
2013-06-22 20:42:00,83.0,76.0,-100.00,SSE,149,11.0,-999.0,80,0.00,,,-99.99,,2013-06-23 01:42:00,
2013-06-22 21:21:00,82.0,77.0,-100.00,SE,145,8.0,-999.0,83,0.00,,,-99.99,,2013-06-23 02:21:00,
2013-06-22 21:31:00,82.0,77.0,-100.00,SE,145,8.0,-999.0,83,0.00,,,-99.99,,2013-06-23 02:31:00,
2013-06-22 21:41:00,82.0,77.0,-100.00,SE,145,8.0,-999.0,83,0.00,,,-99.99,,2013-06-23 02:41:00,
2013-06-22 22:21:00,82.0,76.0,-100.00,SE,135,7.0,-999.0,81,0.00,,,-99.99,,2013-06-23 03:21:00,
2013-06-22 22:31:00,82.0,76.0,-100.00,SE,135,7.0,-999.0,81,0.00,,,-99.99,,2013-06-23 03:31:00,
2013-06-22 22:41:00,82.0,76.0,-100.00,SE,135,7.0,-999.0,81,0.00,,,-99.99,,2013-06-23 03:41:00,
2013-06-22 23:21:00,77.0,-99.9,-100.00,NNE,13,5.0,-999.0,103,0.00,,,-99.99,,2013-06-23 04:21:00,
2013-06-22 23:31:00,77.0,-99.9,-100.00,NNE,13,5.0,-999.0,103,0.00,,,-99.99,,2013-06-23 04:31:00,
2013-06-22 23:42:00,77.0,-99.9,-100.00,NNE,13,5.0,-999.0,103,0.00,,,-99.99,,2013-06-23 04:42:00,